Tracking 19572 objects as of 23-Feb-2019
HD Live streaming from Space Station
objects crossing your sky now

SL-12 R/B(2)

Track SL-12 R/B(2) now!


NORAD ID: 13954
Int'l Code: 1982-113F
Perigee: 36,484.6 km
Apogee: 36,652.2 km
Inclination: 14.2 °
Period: 1,475.9 minutes
Semi major axis: 42939 km
RCS: 2.5399 m2 (large)
Launch date: November 26, 1982
Source: Commonwealth of Independent States (former USSR) (CIS)
Launch site: TYURATAM MISSILE AND SPACE COMPLEX (TTMTR)

Note: This is a ROCKET BODY
aabbcc
Your satellite tracking list
Your tracking list is empty




NASA's NSSDC Master Catalog

Two Line Element Set (TLE):
1 13954U 82113F   19052.24636694 -.00000107  00000-0  00000+0 0  9992
2 13954  14.2214 333.5900 0019518 226.9769 330.8106  0.97570642 93795
Source of the keplerian elements: AFSPC